Location: Zagreb
(45.8000°N, 16.0000°E)
Time: 21:14:41
(UTC+01:00)

deb Explorer IX - Pass Details

Date: 07 October 2020
Orbit: 537 x 1106 km, 38.8° (Epoch: 30 October)

Event Time Altitude Azimuth Distance (km) Brightness Sun altitude
Rises 15:22:58 0° 237° (WSW) 3,652 ? 27.4°
Reaches altitude 10° 15:26:00 10° 229° (SW) 2,615 ? 27.0°
Maximum altitude 15:31:29 34° 167° (SSE) 1,347 ? 26.3°
Drops below altitude 10° 15:36:16 10° 104° (ESE) 2,258 ? 25.7°
Sets 15:38:42 0° 95° (E) 3,091 ? 25.4°
